Weather History for Olive Branch, MS

Change the Weather History Date:

Friday, May 31, 2013

  Actual Average (KMEM) Record (KMEM)
Temperature  
Mean Temperature 74 °F 76 °F  
Max Temperature 82 °F 85 °F 98 °F (1934)
Min Temperature 66 °F 67 °F 47 °F (1889)
Degree Days  
Heating Degree Days 0 0  
Month to date heating degree days 17  
Since 1 July heating degree days 2964  
Cooling Degree Days 9 11  
Month to date cooling degree days 226  
Year to date cooling degree days 321  
Growing Degree Days 24 (Base 50)    
Moisture  
Dew Point 73 °F    
Average Humidity 95    
Maximum Humidity 100    
Minimum Humidity 79    
Precipitation  
Precipitation 0.34 in 0.15 in 4.08 in (1974)
Month to date precipitation 5.25  
Year to date precipitation 24.28  
Snow  
Snow 0.00 in 0.00 in - ()
Month to date snowfall 0.0  
Since 1 July snowfall 3.8  
Snow Depth -    
Sea Level Pressure  
Sea Level Pressure 29.96 in    
Wind  
Wind Speed 9 mph (SSE)    
Max Wind Speed 16 mph    
Max Gust Speed 31 mph    
Visibility 8 miles    
Events Rain    
T = Trace of Precipitation, MM = Missing Value Source: NWS Daily Summary

Daily Weather History Graph

Daily Weather History Graph

Search for Another Location

Airport:

Trip Planner

Search our weather history database for the weather conditions in past years. The results will help you decide how hot, cold, wet, or windy it might be!

Date:

Astronomy

May. 31, 2013 Rise Set
Actual Time 5:46 AM CDT 8:07 PM CDT
Civil Twilight 5:17 AM CDT 8:36 PM CDT
Nautical Twilight 4:41 AM CDT 9:12 PM CDT
Astronomical Twilight 4:02 AM CDT 9:51 PM CDT
Moon 12:53 AM CDT (5/31) 12:49 PM CDT (5/31)
Length of Visible Light 15h 18m
Length of Day
14h 20m
Waning Gibbous, 51% of the Moon is Illuminated
May 31
Waning Gibbous
May 31
Last Quarter
Jun 8
New
Jun 16
First Quarter
Jun 23
Full

Hourly Weather History & Observations

Time (CDT) Temp. Heat Index Dew Point Humidity Pressure Visibility Wind Dir Wind Speed Gust Speed Precip Events Conditions
12:15 AM 71.6 °F - 71.6 °F 100% 29.99 in 10.0 mi SSE 9.2 mph - 0.00 in   Scattered Clouds
12:35 AM 73.4 °F - 73.4 °F 100% 29.98 in 10.0 mi SSE 6.9 mph - 0.00 in   Partly Cloudy
12:55 AM 73.4 °F - 73.4 °F 100% 29.97 in 8.0 mi SSE 8.1 mph - 0.00 in   Partly Cloudy
1:15 AM 73.4 °F - 73.4 °F 100% 29.98 in 10.0 mi SSE 8.1 mph - 0.00 in   Clear
1:35 AM 71.6 °F - 71.6 °F 100% 29.97 in 8.0 mi South 6.9 mph - 0.00 in   Scattered Clouds
1:55 AM 71.6 °F - 71.6 °F 100% 29.97 in 10.0 mi South 5.8 mph - 0.00 in   Mostly Cloudy
2:15 AM 71.6 °F - 71.6 °F 100% 29.97 in 10.0 mi South 5.8 mph - 0.00 in   Overcast
2:35 AM 71.6 °F - 71.6 °F 100% 30.00 in 7.0 mi SW 9.2 mph - 0.00 in   Overcast
2:55 AM 71.6 °F - 71.6 °F 100% 29.99 in 2.5 mi SSW 13.8 mph 31.1 mph 0.15 in   Overcast
3:15 AM 71.6 °F - 71.6 °F 100% 29.96 in 4.0 mi South 6.9 mph - 0.05 in   Overcast
3:35 AM 71.6 °F - 71.6 °F 100% 29.97 in 10.0 mi South 5.8 mph - 0.05 in   Mostly Cloudy
3:55 AM 71.6 °F - 71.6 °F 100% 29.96 in 8.0 mi SE 9.2 mph - 0.05 in   Mostly Cloudy
4:15 AM 71.6 °F - 71.6 °F 100% 29.96 in 10.0 mi SSE 6.9 mph - 0.00 in   Mostly Cloudy
4:35 AM 71.6 °F - 71.6 °F 100% 29.96 in 9.0 mi SE 8.1 mph - 0.01 in   Overcast
4:55 AM 71.6 °F - 71.6 °F 100% 29.96 in 10.0 mi SSE 8.1 mph - 0.01 in   Overcast
5:15 AM 71.6 °F - 71.6 °F 100% 29.97 in 10.0 mi South 10.4 mph - 0.00 in   Overcast
5:35 AM 71.6 °F - 71.6 °F 100% 29.98 in 6.0 mi South 13.8 mph 19.6 mph 0.04 in   Overcast
5:55 AM 71.6 °F - 71.6 °F 100% 29.97 in 10.0 mi South 12.7 mph - 0.05 in   Mostly Cloudy
6:15 AM 71.6 °F - 71.6 °F 100% 29.99 in 5.0 mi South 9.2 mph - 0.01 in   Mostly Cloudy
6:35 AM 69.8 °F - 69.8 °F 100% 30.00 in 6.0 mi South 12.7 mph - 0.05 in   Overcast
6:50 AM 71.6 °F - 71.6 °F 100% 29.99 in 3.0 mi South 16.1 mph 23.0 mph N/A Rain Rain
6:55 AM 69.8 °F - 69.8 °F 100% 29.95 in 3.0 mi South 16.1 mph 23.0 mph 0.08 in   Overcast
7:50 AM 66.2 °F - 66.2 °F 100% 30.01 in 8.0 mi ENE 9.2 mph - N/A   Overcast
8:50 AM 66.2 °F - 66.2 °F 100% 30.02 in 8.0 mi ESE 4.6 mph - N/A   Overcast
9:50 AM 71.6 °F - 71.6 °F 100% 30.01 in 10.0 mi ESE 4.6 mph - N/A   Overcast
10:50 AM 75.2 °F - 75.2 °F 100% 29.99 in 7.0 mi SSE 8.1 mph - N/A   Overcast
11:50 AM 78.8 °F - 77.0 °F 94% 29.98 in 9.0 mi South 12.7 mph - N/A   Overcast
12:50 PM 78.8 °F - 77.0 °F 94% 29.97 in 10.0 mi South 13.8 mph - N/A   Mostly Cloudy
2:50 PM 82.4 °F 90.9 °F 77.0 °F 84% 29.95 in 10.0 mi South 8.1 mph - N/A   Mostly Cloudy
3:55 PM 82.4 °F 89.5 °F 75.2 °F 79% 29.93 in 10.0 mi SSE 13.8 mph - N/A   Mostly Cloudy
4:50 PM 82.4 °F 89.5 °F 75.2 °F 79% 29.93 in 10.0 mi South 8.1 mph - N/A   Mostly Cloudy
5:50 PM 82.4 °F 89.5 °F 75.2 °F 79% 29.91 in 10.0 mi South 9.2 mph - N/A   Mostly Cloudy
6:50 PM 82.4 °F 89.5 °F 75.2 °F 79% 29.90 in 10.0 mi South 11.5 mph - N/A   Scattered Clouds
7:50 PM 80.6 °F 86.2 °F 75.2 °F 84% 29.89 in 10.0 mi SSE 8.1 mph - N/A   Partly Cloudy
9:15 PM 78.8 °F - 75.2 °F 89% 29.87 in 10.0 mi SSE 8.1 mph - 0.00 in   Clear
9:35 PM 78.8 °F - 75.2 °F 89% 29.87 in 9.0 mi SSE 10.4 mph - 0.00 in   Clear
9:55 PM 78.8 °F - 77.0 °F 94% 29.88 in 10.0 mi SSE 8.1 mph - 0.00 in   Clear
10:15 PM 78.8 °F - 77.0 °F 94% 29.89 in 8.0 mi SSE 10.4 mph 16.1 mph 0.00 in   Clear
10:35 PM 78.8 °F - 75.2 °F 89% 29.92 in 10.0 mi SSE 9.2 mph - 0.00 in   Partly Cloudy
10:55 PM 78.8 °F - 75.2 °F 89% 29.93 in 9.0 mi SSE 9.2 mph - 0.00 in   Partly Cloudy
11:15 PM 78.8 °F - 75.2 °F 89% 29.94 in 10.0 mi SSE 8.1 mph - 0.00 in   Clear
11:35 PM 77.0 °F - 75.2 °F 94% 29.93 in 9.0 mi SSE 10.4 mph - 0.00 in   Scattered Clouds
11:55 PM 77.0 °F - 75.2 °F 94% 29.94 in 9.0 mi SSE 8.1 mph - 0.00 in   Partly Cloudy